This demonstration page uses our WeatherBlox Daily Observations layout. Learn more.

Left ArrowRight Arrow

39.51506, -84.39828

Hourly Observations for December 1, 2018

Temp ( °F °C ) Dew Point ( °F °C ) Humidity (%) Winds ( mph kmh ) Pressure ( in mb ) Visibility ( mi km ) Precip ( " mm )
12:15 am 00:15 Cloudy with Mist and Fog 41 5.2 40 4.7 97 97 ENE 9 15 30.06 1018 3 5 0.00 0.00
12:35 am 00:35 Cloudy with Mist and Fog 41 5.2 41 4.8 97 97 ENE 9 15 30.06 1018 4 6 0.00 0.00
12:55 am 00:55 Cloudy with Mist and Fog 41 5.1 40 4.7 97 97 NE 8 13 30.03 1017 4 6 0.00 0.00
1:15 am 01:15 Cloudy with Mist and Fog 41 5.1 40 4.7 97 97 NE 6 9 30.03 1017 3 5 0.00 0.00
1:35 am 01:35 Cloudy with Mist and Fog 41 5.1 40 4.7 97 97 NE 7 11 30.03 1017 3 4 0.00 0.00
1:55 am 01:55 Cloudy with Mist and Fog 41 5.1 41 4.8 98 98 NE 7 11 30.00 1016 3 5 0.00 0.00
2:15 am 02:15 Cloudy with Mist and Fog 42 5.3 41 4.9 97 97 NE 7 11 30.00 1016 4 6 0.00 0.00
2:35 am 02:35 Cloudy with Mist and Fog 42 5.5 41 4.9 96 96 E 8 13 30.00 1016 4 6 0.00 0.00
2:55 am 02:55 Cloudy with Mist and Fog 42 5.8 41 5 95 95 ENE 9 15 30.00 1016 4 6 0.00 0.00
3:15 am 03:15 Cloudy with Mist and Fog 42 5.7 41 4.9 95 95 ENE 10 17 29.97 1015 4 6 0.00 0.00
3:35 am 03:35 Cloudy with Mist and Fog 42 5.7 41 4.9 95 95 E 8 13 29.97 1015 4 6 0.00 0.00
3:55 am 03:55 Cloudy with Mist and Fog 42 5.7 41 4.9 95 95 ENE 10 17 29.94 1014 4 6 0.00 0.00
4:15 am 04:15 Cloudy with Mist and Fog 42 5.8 41 4.9 94 94 E 8 13 29.94 1014 5 8 0.00 0.00
4:35 am 04:35 Cloudy with Mist and Fog 43 5.9 41 4.9 93 93 ENE 9 15 29.94 1014 5 8 0.00 0.00
4:55 am 04:55 Cloudy with Mist and Fog 43 5.9 41 4.9 93 93 ENE 9 15 29.94 1014 4 6 0.00 0.00
5:15 am 05:15 Cloudy with Mist and Fog 43 5.9 41 5 94 94 NE 10 17 29.91 1013 4 6 0.00 0.00
5:35 am 05:35 Cloudy with Mist and Fog 43 6 41 5.1 94 94 ENE 10 17 29.91 1013 4 6 0.00 0.00
5:55 am 05:55 Cloudy with Mist and Fog 43 6.2 41 5.1 93 93 ENE 6 9 29.91 1013 5 8 0.00 0.00
6:15 am 06:15 Cloudy with Rain 43 6.1 41 5.1 93 93 ENE 10 17 29.88 1012 4 6 0.00 0.00
6:35 am 06:35 Cloudy with Rain 43 6 41 5.2 95 95 NE 12 19 29.88 1012 3 5 0.06 1.52
6:55 am 06:55 Cloudy with Rain 43 6 42 5.3 95 95 NE 9 15 29.85 1011 3 5 0.12 3.05
7:15 am 07:15 Cloudy with Heavy Rain 43 6.1 42 5.4 95 95 ENE 9 15 29.88 1012 3 4 0.08 2.03
7:35 am 07:35 Cloudy with Light Rain 43 6.1 42 5.5 96 96 Calm 29.91 1013 2 3 0.23 5.84
7:55 am 07:55 Cloudy with Light Rain 43 6.1 42 5.6 97 97 ENE 8 13 29.88 1012 2 3 0.35 8.89
8:15 am 08:15 Cloudy with Light Rain 43 6.1 42 5.5 96 96 ENE 5 7 29.88 1012 2 3 0.05 1.27
8:35 am 08:35 Cloudy with Light Rain 43 6.2 42 5.5 95 95 E 5 7 29.88 1012 1 2 0.13 3.30
8:55 am 08:55 Cloudy with Rain 44 6.4 42 5.7 95 95 E 6 9 29.85 1011 3 4 0.19 4.83
9:15 am 09:15 Cloudy with Light Rain 44 6.5 43 5.9 96 96 ENE 5 7 29.85 1011 3 5 0.05 1.27
9:30 am 09:30 Cloudy with Rain 44 6.7 43 6 95 95 E 7 11 29.85 1011 3 5 0.08 2.03
9:55 am 09:55 Cloudy with Rain 44 6.8 43 6.3 97 97 ENE 7 11 29.85 1011 3 4 0.16 4.06
10:15 am 10:15 Cloudy with Rain 45 7 44 6.5 97 97 Calm 29.85 1011 3 4 0.07 1.78
10:35 am 10:35 Cloudy with Rain 45 7.3 44 6.8 97 97 NE 5 7 29.83 1010 3 4 0.14 3.56
10:55 am 10:55 Cloudy with Rain 45 7.4 45 7 97 97 NNE 5 7 29.80 1009 4 6 0.18 4.57
11:15 am 11:15 Cloudy with Heavy Rain 46 7.6 45 7.2 97 97 Calm 29.80 1009 2 3 0.08 2.03
11:35 am 11:35 Cloudy with Rain 47 8.3 46 7.9 97 97 ESE 8 13 29.80 1009 3 4 0.19 4.83
11:55 am 11:55 Cloudy with Rain 48 8.9 47 8.3 96 96 ESE 6 9 29.80 1009 5 8 0.23 5.84
12:15 pm 12:15 Cloudy with Light Rain 48 8.9 47 8.3 96 96 E 5 7 29.77 1008 4 6 0.02 0.51
12:35 pm 12:35 Cloudy with Light Rain 48 8.9 47 8.4 97 97 E 6 9 29.77 1008 2 3 0.02 0.51
12:55 pm 12:55 Cloudy with Drizzle 48 9 48 9 100 100 SE 5 7 29.74 1007 3 4 0.03 0.76
1:15 pm 13:15 Cloudy with Drizzle 49 9.5 48 9 97 97 E 3 6 29.74 1007 4 6 0.00 0.00
1:35 pm 13:35 Cloudy 50 9.8 49 9.2 96 96 E 5 7 29.74 1007 7 11 0.01 0.25
1:55 pm 13:55 Cloudy 50 9.9 49 9.2 95 95 S 3 6 29.74 1007 10 16 0.01 0.25
2:15 pm 14:15 Cloudy with Mist and Fog 50 10.1 49 9.4 95 95 SE 7 11 29.71 1006 5 8 0.00 0.00
2:35 pm 14:35 Cloudy with Light Rain 51 10.3 49 9.7 96 96 SE 10 17 29.71 1006 10 16 0.00 0.00
2:55 pm 14:55 Cloudy with Rain 51 10.4 50 9.8 96 96 E 13 20 29.62 1003 5 8 0.03 0.76
3:15 pm 15:15 Cloudy 52 10.9 50 10.1 95 95 SE 9 15 29.68 1005 10 16 0.00 0.00
3:35 pm 15:35 Cloudy 51 10.7 50 9.8 94 94 ESE 12 19 29.62 1003 10 16 0.00 0.00
3:55 pm 15:55 Cloudy with Light Rain 52 11 50 10.1 94 94 ESE 13 20 29.59 1002 10 16 0.01 0.25
4:15 pm 16:15 Cloudy 52 11.3 51 10.3 94 94 SW 9 15 29.65 1004 10 16 0.00 0.00
4:35 pm 16:35 Cloudy 53 11.5 51 10.6 94 94 SSE 3 6 29.65 1004 10 16 0.00 0.00
4:55 pm 16:55 Mostly Cloudy 53 11.5 51 10.6 94 94 Calm 29.65 1004 10 16 0.00 0.00
5:15 pm 17:15 Cloudy 53 11.5 51 10.6 94 94 Calm 29.59 1002 10 16 0.00 0.00
5:35 pm 17:35 Cloudy 54 12.4 52 11.3 93 93 SE 6 9 29.59 1002 10 16 0.00 0.00
5:55 pm 17:55 Cloudy 55 12.6 52 11.3 92 92 SE 10 17 29.59 1002 10 16 0.00 0.00
6:15 pm 18:15 Cloudy with Rain 54 12.4 53 11.4 94 94 SE 7 11 29.59 1002 5 8 0.04 1.02
6:35 pm 18:35 Partly Cloudy with Light Rain 54 12.2 52 11.2 94 94 SE 13 20 29.56 1001 10 16 0.05 1.27
6:55 pm 18:55 Mostly Cloudy 55 12.6 52 11.3 92 92 SSE 8 13 29.56 1001 10 16 0.05 1.27
7:15 pm 19:15 Cloudy 55 12.7 53 11.4 92 92 SSE 5 7 29.53 1000 10 16 0.00 0.00
7:35 pm 19:35 Cloudy 55 12.7 53 11.5 92 92 SSE 3 6 29.56 1001 10 16 0.00 0.00
7:55 pm 19:55 Cloudy with Nearby Thunderstorms 55 12.8 53 11.6 92 92 S 8 13 29.56 1001 10 16 0.01 0.25
8:15 pm 20:15 Cloudy 55 13 53 11.9 93 93 SSE 9 15 29.53 1000 10 16 0.04 1.02
8:35 pm 20:35 Cloudy 56 13.2 54 12 93 93 S 7 11 29.53 1000 10 16 0.04 1.02
8:55 pm 20:55 Cloudy 56 13.4 54 12 91 91 SSE 8 13 29.53 1000 10 16 0.04 1.02
9:15 pm 21:15 Cloudy 56 13.6 54 12.1 91 91 S 7 11 29.53 1000 10 16 0.00 0.00
9:35 pm 21:35 Cloudy 56 13.5 54 12.1 91 91 SSE 10 17 29.50 999 10 16 0.00 0.00
9:55 pm 21:55 Cloudy 57 14 54 12.3 90 90 SSE 12 19 29.50 999 10 16 0.00 0.00
10:15 pm 22:15 Cloudy with Rain 57 13.8 54 12.4 91 91 SE 7 11 29.50 999 10 16 0.01 0.25
10:35 pm 22:35 Cloudy with Light Rain 57 13.8 55 12.5 92 92 S 6 9 29.50 999 10 16 0.02 0.51
10:55 pm 22:55 Cloudy 57 13.9 55 12.6 92 92 S 9 15 29.53 1000 10 16 0.03 0.76
11:15 pm 23:15 Cloudy 57 13.9 55 12.5 91 91 S 9 15 29.50 999 10 16 0.00 0.00
11:35 pm 23:35 Cloudy 57 13.9 55 12.5 91 91 S 9 15 29.50 999 10 16 0.00 0.00
11:55 pm 23:55 Cloudy 58 14.3 55 12.7 90 90 S 10 17 29.50 999 10 16 0.00 0.00

Powered by AerisWeather